GFSSGP_500_spd_336.txt.gz
Wind_Speed
30 28 26 26 26 20 16 17 21 21 19 21 27 22 24 24 22 20 14 21 20 19 18 18 16 18 19 16 17 21 21 18 17 17 16 15 15 14 15 15 14 13 13 13 13 12 12 12 12
32 32 32 30 28 22 19 24 20 20 20 22 25 24 25 23 22 20 17 20 20 19 19 19 18 19 19 20 19 17 16 16 16 16 14 14 14 13 14 14 14 13 12 12 12 12 13 13 13
34 32 37 37 30 23 24 26 24 22 22 22 23 23 21 20 21 19 20 20 19 19 19 19 18 18 17 17 16 16 16 16 17 16 16 15 15 15 14 14 13 12 12 11 11 11 12 12 13
35 36 38 39 32 28 28 30 30 27 25 26 27 26 22 21 23 22 22 22 21 20 20 19 19 19 19 18 18 18 18 18 18 17 16 15 15 15 15 15 15 13 13 13 13 13 13 14 14
37 38 42 37 32 30 31 33 31 31 28 30 32 28 25 25 25 24 23 23 24 24 23 22 21 20 20 20 20 19 18 17 16 16 17 17 17 17 16 16 16 16 16 15 16 16 16 16 17
40 40 44 38 32 32 38 34 36 35 34 34 34 32 29 27 27 26 25 25 24 23 23 23 22 21 20 19 18 18 19 19 18 20 19 19 19 18 17 18 17 17 17 18 18 19 20 21 22
42 43 44 41 35 36 31 41 41 36 35 36 36 36 31 29 29 28 26 25 25 24 23 22 22 21 21 20 19 19 19 19 20 20 21 21 20 20 20 21 21 20 20 20 21 21 22 23 23
45 48 47 42 36 33 35 42 45 43 37 39 38 37 31 32 32 31 29 28 27 27 26 26 25 24 23 21 21 20 20 22 24 25 25 24 24 24 25 25 25 24 24 24 25 25 25 25 26
50 54 49 38 33 30 36 47 47 49 44 43 41 36 35 37 36 34 31 30 31 31 31 30 29 28 26 25 25 25 25 25 26 27 26 27 26 26 26 26 26 26 26 26 26 27 27 27 28
54 57 47 32 36 38 45 51 47 51 49 47 46 39 41 39 38 36 34 34 34 35 34 33 32 32 30 30 30 29 28 28 27 28 28 27 27 27 28 28 28 27 28 28 29 30 30 30 30
59 59 44 39 41 43 48 53 51 51 52 45 42 46 46 44 42 39 38 39 38 38 37 37 36 35 34 33 32 30 29 30 30 29 29 29 29 29 30 30 30 30 30 32 32 33 33 32 33
63 61 53 45 46 49 49 54 58 54 49 46 49 51 49 45 43 41 41 41 41 39 40 39 38 36 36 36 34 31 30 32 32 31 31 31 32 32 32 32 32 32 33 34 34 35 35 36 37
69 67 60 53 52 54 54 57 59 57 51 46 48 51 49 46 45 45 45 44 41 40 40 40 40 39 39 37 35 32 33 34 34 34 33 33 34 34 34 34 34 35 36 36 36 37 38 39 41
68 68 67 63 58 58 61 58 59 58 50 50 49 52 50 49 46 49 48 44 43 43 42 43 41 41 40 38 37 35 35 36 36 35 35 34 35 35 34 34 35 36 37 37 38 39 40 41 43
69 72 73 69 62 62 61 64 61 52 46 50 54 52 53 49 50 50 49 48 48 45 46 44 45 44 41 41 40 39 38 38 38 37 36 35 35 35 35 35 36 37 38 39 39 40 41 43 44
75 75 75 73 70 65 66 67 58 55 50 50 54 55 53 52 50 50 53 51 49 48 47 48 47 46 44 43 42 41 41 41 39 39 37 37 36 36 36 36 37 39 39 40 41 41 42 44 45
81 80 79 76 74 70 69 68 61 56 53 53 52 55 56 53 55 53 53 52 51 50 50 49 48 47 46 44 43 42 42 42 41 41 39 38 37 37 36 37 39 40 41 41 42 42 43 45 46
87 85 83 80 71 68 70 72 67 59 57 57 55 54 58 58 55 53 54 53 54 53 52 51 49 47 46 45 45 43 44 44 43 42 41 40 40 39 38 39 39 42 43 42 42 43 44 44 45
81 84 82 79 76 70 70 72 72 67 64 62 61 57 58 60 54 55 55 55 55 55 52 51 51 50 49 46 45 45 46 46 44 43 43 43 42 41 39 40 41 43 44 43 43 44 44 44 45
77 83 85 81 76 76 74 75 75 72 68 64 63 60 57 58 57 56 56 54 54 51 52 53 52 50 48 48 48 48 49 47 45 44 44 46 45 43 42 43 43 44 44 44 43 43 43 44 46
71 81 83 82 74 74 78 81 77 76 70 69 69 64 60 58 60 59 59 55 54 54 54 53 52 52 51 50 51 50 47 46 45 46 48 47 46 46 47 44 45 45 46 44 43 43 42 44 47
67 68 74 74 69 76 72 85 79 77 75 69 68 70 67 62 61 61 61 60 56 52 54 54 53 53 53 53 53 51 49 48 47 48 48 47 48 49 48 47 47 46 46 44 43 42 41 43 47
59 58 63 67 64 64 68 76 87 79 76 71 65 68 67 64 62 62 62 59 56 56 55 56 57 56 54 54 54 53 52 51 50 48 48 49 50 50 50 49 48 47 45 44 43 41 41 43 45
45 52 58 60 62 69 74 69 90 80 73 70 65 63 58 64 66 66 64 64 62 59 59 59 58 57 57 57 55 54 53 54 51 50 51 52 51 50 51 51 50 48 45 43 42 41 41 42 43
48 52 52 59 62 65 67 64 86 83 74 72 68 63 63 47 52 71 70 66 62 62 62 61 61 59 59 58 57 56 55 54 53 54 53 52 52 52 52 51 51 48 46 43 41 41 41 41 40
43 45 51 57 58 63 59 63 81 80 75 71 70 65 61 61 51 44 45 56 67 69 69 67 66 65 63 61 61 60 59 56 55 56 56 55 54 54 53 52 51 48 45 43 41 41 41 41 39
39 38 41 52 56 58 62 64 64 68 66 62 66 67 65 62 65 66 57 49 43 43 45 59 69 70 68 66 63 62 61 59 59 58 56 56 56 54 54 52 51 48 45 44 43 42 42 41 39
57 50 43 35 49 58 60 62 61 65 65 63 62 61 65 66 63 63 64 62 56 52 47 44 50 56 66 68 66 64 62 60 60 58 58 58 57 56 54 52 50 48 46 45 44 43 42 42 40
49 65 61 47 51 40 38 45 44 55 56 55 57 60 63 61 63 61 59 57 59 57 53 50 48 49 56 61 68 66 65 65 63 62 60 59 59 57 54 52 50 48 47 46 45 44 44 42 42
30 40 45 50 60 57 51 51 49 50 54 48 38 34 36 40 55 58 56 59 54 52 56 55 52 48 53 61 64 66 67 69 66 63 59 60 61 57 53 51 51 49 48 47 46 45 45 43 44

GFSSGP_500_spd_339.txt.gz
Wind_Speed
31 32 33 33 34 30 22 19 25 27 25 22 24 24 20 24 24 23 21 22 20 21 21 17 17 20 21 26 21 19 24 25 21 19 16 14 15 14 14 13 12 12 12 11 11 11 10 10 10
33 34 37 38 36 31 23 24 23 25 22 23 23 23 21 23 24 21 20 23 21 22 22 21 18 18 19 22 21 15 19 23 20 17 15 15 14 14 13 13 12 12 12 12 12 12 12 11 11
36 38 40 43 39 29 26 29 29 26 23 20 20 22 23 25 26 25 22 21 23 23 23 22 21 22 20 19 17 17 18 19 18 16 16 16 16 15 15 14 14 13 12 12 11 11 10 11 12
37 41 43 46 38 30 32 33 33 30 29 27 21 24 22 24 25 23 21 22 23 22 22 21 21 21 21 21 21 21 19 19 18 17 17 17 17 17 16 15 15 14 13 13 13 14 13 14 14
41 43 47 46 37 29 37 40 34 36 33 31 27 26 24 24 24 23 23 24 23 22 22 21 21 21 21 20 20 20 19 19 18 19 19 19 19 17 17 16 16 16 16 16 15 15 14 15 15
47 46 48 45 36 33 38 39 39 39 37 35 34 30 29 26 26 26 27 26 26 25 24 23 23 23 23 22 22 21 19 19 18 18 19 19 18 18 19 19 18 17 17 16 16 17 17 17 17
50 49 49 47 39 39 35 42 44 42 42 37 37 36 34 32 31 30 30 28 28 27 26 26 26 25 24 23 21 20 19 19 19 20 21 21 21 21 21 19 18 18 19 19 19 20 20 20 21
53 54 54 50 41 35 36 41 43 49 45 44 44 39 34 37 35 34 34 32 30 29 28 27 27 26 25 24 23 22 22 23 23 24 24 23 23 23 23 22 22 22 22 23 24 24 24 24 24
58 62 60 51 40 31 34 41 45 49 50 48 48 40 38 39 38 37 36 35 33 32 32 31 30 29 28 27 26 26 26 25 24 25 26 26 26 26 25 25 25 25 26 26 26 26 26 26 27
64 67 63 46 43 38 40 46 48 52 54 52 51 46 40 41 42 40 38 37 36 35 36 35 34 32 31 31 31 30 29 28 27 27 26 27 28 28 28 29 29 29 29 29 29 28 28 28 28
68 71 62 53 47 45 47 52 51 54 55 52 48 46 47 48 44 43 41 40 40 40 38 37 36 35 35 34 33 33 31 31 30 29 29 29 30 31 31 31 31 31 31 31 30 29 30 30 30
70 71 68 59 54 53 53 52 56 58 53 54 52 50 51 51 45 44 43 43 44 43 41 40 39 39 39 37 36 36 35 34 34 33 32 32 32 33 33 33 33 33 32 31 31 31 32 31 32
70 73 72 67 60 60 58 60 59 60 55 55 56 53 51 50 48 47 47 46 47 44 42 43 42 41 41 40 39 39 39 39 37 34 34 34 34 35 34 35 35 35 33 33 33 33 33 34 33
73 72 70 69 66 66 66 65 64 62 57 55 55 53 51 51 50 49 48 47 45 46 46 47 47 46 44 43 43 43 41 41 39 37 36 36 37 37 36 36 35 34 33 33 34 34 35 35 36
78 79 76 71 69 71 69 71 70 63 58 56 52 52 53 52 54 53 49 48 49 48 51 50 50 49 47 46 46 44 44 42 41 39 38 38 37 37 37 36 36 35 34 34 34 35 36 36 37
82 82 82 75 72 72 74 76 69 66 60 58 52 51 54 54 55 53 52 52 50 52 51 51 51 49 49 48 48 47 45 45 43 41 41 40 39 39 38 38 37 36 35 35 35 36 37 38 38
82 87 86 82 80 78 76 77 71 67 63 61 57 55 55 55 56 56 55 52 53 51 52 54 53 52 51 52 51 50 48 46 45 43 42 42 40 40 40 39 38 38 37 36 36 37 38 39 39
86 87 88 88 85 81 77 76 75 69 66 63 60 59 59 59 56 56 58 56 54 55 55 55 55 54 53 52 51 50 48 47 46 46 45 43 42 42 42 42 41 41 40 37 37 38 40 40 40
73 77 82 83 81 79 82 79 75 72 72 68 67 65 62 61 55 54 57 60 59 57 57 56 55 53 54 53 52 50 48 50 50 49 46 44 44 45 45 44 43 43 40 40 39 40 41 42 43
73 74 77 78 77 82 81 85 80 78 74 72 71 68 64 62 61 57 57 59 61 60 54 56 55 54 54 55 55 55 53 54 52 50 46 45 47 48 46 45 44 43 43 43 42 41 42 44 45
74 75 75 76 73 74 77 87 84 82 79 74 75 73 69 66 63 61 59 59 60 60 57 54 53 53 56 56 56 55 56 54 51 48 47 49 51 49 46 45 46 45 45 44 43 43 44 45 46
78 70 69 71 72 75 71 86 82 82 82 79 73 72 71 70 68 64 61 59 59 58 55 56 56 55 56 56 56 56 54 53 51 50 52 51 49 46 46 48 47 46 47 46 45 45 46 46 45
68 61 64 66 66 67 70 76 88 81 84 82 76 71 70 70 68 67 62 61 59 57 57 56 57 57 58 58 58 56 56 54 52 52 51 50 49 48 50 49 48 49 48 48 47 47 48 46 45
56 54 52 55 55 68 69 69 88 83 82 81 76 70 70 68 68 69 66 63 64 65 61 60 59 58 59 58 57 56 55 55 55 53 51 50 50 51 50 50 51 50 49 49 50 49 49 47 46
54 54 53 53 56 63 66 66 78 80 75 76 76 71 69 68 66 69 67 70 70 67 65 62 61 59 58 57 57 58 58 58 58 56 54 52 52 51 52 53 52 51 51 51 50 50 50 49 47
53 53 53 54 52 55 57 65 69 68 70 72 73 70 69 69 67 63 66 65 58 70 71 67 63 62 60 60 61 61 61 62 60 59 56 55 54 54 54 54 54 54 54 53 52 51 50 50 48
46 54 55 51 55 54 54 55 52 59 57 61 68 67 65 66 64 63 66 64 62 50 54 64 73 69 65 66 64 66 65 64 63 62 61 59 58 56 55 56 56 57 57 56 54 52 52 51 49
53 45 42 52 51 56 50 47 46 48 50 51 51 47 52 62 63 63 63 63 62 66 55 48 55 68 66 68 69 69 69 68 66 65 63 62 61 60 60 60 59 58 57 56 55 54 52 51 50
50 50 42 35 44 22 34 54 48 33 30 39 44 50 51 53 53 58 64 63 61 59 68 64 57 50 50 49 54 60 65 71 71 69 69 68 66 65 63 61 61 59 59 58 57 56 52 52 52
50 42 41 43 48 41 33 19 15 24 31 29 31 36 42 43 52 59 58 61 65 64 58 61 64 62 61 59 51 44 53 61 65 70 73 69 68 67 64 63 64 63 61 59 59 56 52 54 53

GFSSGP_500_spd_342.txt.gz
Wind_Speed
32 32 36 39 41 40 28 21 26 29 30 29 30 28 28 26 20 20 19 21 22 24 23 23 24 25 21 24 25 25 21 22 23 21 19 17 16 15 13 13 13 11 9 8 8 7 6 6 6
34 36 39 42 44 40 25 24 27 29 33 30 30 29 30 27 22 19 19 20 25 18 24 23 21 18 21 23 29 28 24 25 27 23 20 18 17 15 14 13 12 11 10 9 8 8 8 8 8
38 39 41 45 46 38 27 25 32 30 30 26 26 30 29 27 23 19 21 23 24 22 23 23 23 19 20 22 22 24 19 19 26 24 22 20 18 16 14 14 13 11 10 9 9 8 8 8 8
42 43 45 49 44 34 29 32 36 32 34 28 28 29 27 24 25 23 27 21 23 25 23 25 24 24 22 20 16 20 19 16 21 21 21 20 17 15 13 13 12 11 11 10 10 10 11 11 11
47 48 50 50 43 34 31 35 40 36 35 35 32 28 28 25 27 25 27 28 27 25 24 25 25 25 25 24 22 23 21 19 21 21 20 18 16 15 15 14 13 12 13 13 14 14 13 12 12
53 53 55 54 42 38 35 37 42 38 39 39 36 34 30 26 27 26 26 28 27 25 23 23 23 23 24 23 22 22 22 22 21 19 18 17 16 16 15 15 15 15 15 15 15 13 13 13 14
56 57 58 55 49 44 34 38 45 38 41 44 38 40 36 30 32 30 28 27 27 26 25 26 25 25 24 24 23 22 22 21 20 20 18 17 16 17 18 18 18 18 17 16 15 15 15 16 16
61 63 63 61 54 46 38 39 42 46 40 46 49 43 36 38 38 36 31 31 29 29 28 28 28 28 28 27 26 25 23 22 21 21 19 18 19 21 22 23 22 21 19 18 18 19 19 19 19
65 72 73 65 58 47 39 40 42 46 47 47 49 45 39 41 43 39 36 35 32 31 31 31 32 31 30 29 27 25 25 24 24 23 22 22 24 25 25 25 24 22 21 21 22 22 22 22 23
69 76 76 65 56 52 46 44 46 49 50 49 50 48 45 43 45 44 39 39 38 36 36 37 36 35 34 32 30 29 28 28 27 27 27 27 28 28 28 27 26 25 25 26 26 26 26 26 26
73 77 69 65 58 57 54 51 49 54 55 51 50 50 49 49 49 46 43 41 41 42 41 40 39 36 34 34 34 32 32 32 32 31 30 29 28 27 27 28 28 28 29 30 30 30 30 29 28
72 72 74 69 62 62 59 55 56 58 56 52 54 53 52 53 52 46 44 44 44 45 44 40 38 38 38 37 36 35 35 35 35 34 32 30 29 28 28 29 30 31 32 33 33 33 32 30 28
78 75 73 73 66 67 65 64 62 63 59 59 58 58 53 51 51 49 48 49 48 45 44 44 43 43 42 42 41 39 38 37 37 35 34 33 33 31 31 31 32 34 35 35 35 34 32 31 30
80 80 78 75 76 72 72 70 70 66 65 63 61 56 55 51 49 50 51 49 49 47 46 47 47 45 45 43 43 42 41 40 39 38 38 37 37 35 35 35 35 36 36 36 35 33 32 32 31
81 85 84 80 77 75 74 78 76 67 68 66 65 58 55 52 51 48 48 49 50 50 51 51 51 49 48 47 46 46 45 44 43 43 42 41 41 39 38 37 37 37 36 35 34 33 33 32 32
82 85 89 83 80 79 76 81 73 76 72 70 67 60 56 52 49 49 51 52 53 55 53 53 52 51 50 50 50 49 49 48 47 46 45 44 43 42 40 39 39 38 37 36 35 35 34 33 32
82 87 88 86 84 84 83 81 74 72 74 71 69 65 59 54 53 51 52 51 52 54 55 55 54 54 53 53 53 53 52 50 49 49 47 47 47 44 42 41 40 40 39 38 38 37 35 34 33
87 85 85 87 86 83 84 86 78 72 72 70 68 67 63 59 56 54 52 54 54 54 57 57 57 57 58 57 56 56 54 52 51 50 50 51 49 47 45 43 42 42 41 41 41 39 38 36 35
76 76 78 78 76 79 83 86 81 75 73 72 72 71 69 68 60 61 58 56 58 57 58 59 59 57 58 57 57 56 53 52 54 53 53 53 51 47 45 45 45 43 43 43 42 40 41 40 39
76 76 77 76 75 78 81 87 82 79 79 76 73 73 73 73 69 65 63 60 58 57 57 59 60 59 58 57 56 57 54 55 57 58 57 53 49 48 48 48 46 45 45 45 43 42 42 42 43
74 76 73 75 72 73 78 85 81 80 78 80 79 74 73 74 72 70 67 63 61 60 57 56 57 58 57 58 58 56 56 55 55 55 53 51 52 54 53 51 48 47 47 46 45 44 43 43 44
76 70 68 71 72 76 75 83 79 77 76 74 78 78 74 72 74 70 71 68 64 61 57 56 55 55 56 58 58 57 54 54 54 55 56 56 57 55 53 50 48 49 49 48 46 44 44 44 44
71 65 70 68 72 74 75 77 85 77 80 75 77 77 78 74 71 72 71 70 67 64 63 59 56 55 56 58 58 59 58 57 55 55 56 57 56 55 53 52 50 50 50 48 47 47 46 46 45
61 63 63 64 66 74 76 71 80 78 77 78 74 70 74 76 74 71 67 70 72 70 67 63 61 57 57 58 59 60 60 57 57 57 57 58 57 55 53 52 51 51 50 50 49 50 49 48 48
59 59 50 54 59 68 68 66 76 73 71 70 70 71 70 73 76 73 70 69 73 67 70 68 67 62 60 58 60 60 59 59 60 60 60 60 58 56 53 54 54 53 51 51 52 52 51 51 50
48 56 50 45 48 49 52 61 68 64 62 63 62 65 65 68 72 75 73 72 68 71 70 67 68 69 64 62 62 61 60 59 60 61 61 60 58 57 57 57 56 54 54 55 54 54 53 53 53
49 67 55 52 42 32 45 54 55 58 58 55 55 55 57 61 64 71 73 72 70 68 74 74 66 68 66 65 67 64 63 62 62 62 63 62 61 61 60 59 57 57 57 56 56 55 55 55 55
38 46 60 55 45 31 52 49 44 42 37 36 36 41 44 45 54 63 68 70 67 64 65 67 72 63 63 71 65 66 65 66 67 67 67 66 66 65 63 61 61 60 59 58 58 58 57 58 57
36 31 47 46 56 43 18 26 28 32 30 24 26 33 38 41 44 51 61 60 63 64 64 65 63 68 70 52 65 70 67 69 72 70 71 72 70 68 67 66 66 63 63 63 62 62 62 61 59
17 35 38 46 49 32 39 29 29 34 38 36 36 33 31 35 42 45 47 54 59 61 65 62 60 59 62 67 54 56 69 75 76 72 74 73 73 71 71 71 70 69 67 66 67 67 65 62 62

GFSSGP_500_spd_345.txt.gz
Wind_Speed
38 37 37 37 41 39 25 21 22 29 32 27 31 28 29 30 29 26 25 23 25 23 23 24 26 26 25 25 25 24 27 25 23 25 27 33 30 22 20 18 16 13 12 10 8 7 6 5 3
41 41 41 42 45 39 22 20 22 32 38 28 29 28 28 27 27 26 25 22 24 25 24 23 23 26 26 25 23 24 23 24 23 24 22 22 19 20 19 17 15 13 11 9 7 6 6 5 5
44 45 46 47 47 31 21 22 28 36 38 30 29 28 28 25 28 28 27 26 24 27 22 26 23 24 23 21 24 28 27 28 26 26 26 23 20 19 19 17 15 13 12 10 9 8 7 6 5
47 50 51 54 49 30 25 26 32 38 39 35 32 30 24 25 25 28 28 28 27 26 29 23 25 25 23 20 22 24 25 25 27 29 28 23 21 20 19 18 16 13 11 10 9 8 7 7 8
53 55 57 56 50 34 29 30 34 39 39 37 35 31 26 24 24 28 31 31 29 33 29 25 26 27 27 23 21 19 22 22 20 24 26 23 22 21 20 17 14 13 11 10 9 9 10 11 9
60 60 61 59 49 41 35 34 37 39 41 39 38 36 32 27 24 27 30 31 34 33 30 28 27 29 29 27 25 22 21 21 20 21 23 23 22 19 17 16 14 14 13 12 13 13 12 11 10
63 64 65 61 56 50 37 38 41 38 42 40 40 42 37 32 30 29 28 30 34 35 32 28 28 29 29 28 26 25 24 24 24 23 22 22 20 18 16 15 15 15 15 16 14 14 13 12 12
71 70 73 70 64 55 42 43 40 44 42 42 46 44 37 36 36 35 32 30 32 34 33 30 29 30 29 28 27 26 25 26 26 25 23 21 19 19 18 17 17 17 18 18 17 16 16 16 16
70 77 79 73 68 57 45 46 43 45 49 46 46 45 38 42 40 39 37 34 32 32 34 34 32 31 30 29 29 28 27 27 26 26 24 23 22 20 20 21 20 21 22 21 20 20 19 19 19
75 76 77 76 73 65 54 54 51 51 52 52 49 47 43 42 44 42 42 39 37 35 35 38 34 33 34 33 33 31 30 30 30 29 26 25 24 24 24 23 23 24 25 25 24 23 22 22 23
76 77 69 69 71 72 65 63 59 59 58 55 50 50 50 46 47 47 46 43 39 41 40 39 39 38 37 37 37 35 34 34 32 31 30 30 28 27 27 27 28 28 29 28 26 25 25 26 27
81 75 75 73 71 69 69 64 65 64 59 57 57 56 54 50 47 49 50 44 44 43 43 42 41 40 39 38 37 37 37 36 35 34 33 32 31 30 29 29 29 29 29 29 28 28 29 30 31
82 78 80 78 76 72 71 71 66 66 63 64 63 60 57 54 48 49 52 50 48 47 44 43 43 42 41 41 41 40 40 39 38 37 35 34 34 33 32 31 30 29 29 29 29 31 32 32 33
80 81 81 83 81 79 77 73 72 66 65 69 68 64 58 57 49 50 52 48 50 47 47 45 44 44 44 44 44 44 43 43 42 40 39 38 37 36 35 33 32 31 30 30 32 32 33 34 34
81 83 84 83 81 83 78 79 76 66 72 71 70 67 63 58 55 49 47 48 49 53 54 51 49 49 48 47 46 45 46 46 45 43 41 41 40 39 37 36 35 34 33 33 33 34 34 35 34
80 84 87 82 80 82 82 83 73 69 74 73 71 68 66 61 58 51 49 49 50 52 54 56 54 51 50 50 49 49 49 48 48 46 45 43 42 41 41 40 38 38 37 37 36 35 35 35 34
80 87 88 84 81 83 86 84 81 76 74 74 72 69 67 64 61 56 51 50 50 49 53 57 57 55 55 53 52 53 53 52 51 49 47 46 45 44 44 44 42 42 41 41 39 38 38 37 36
73 77 81 84 82 79 83 87 82 76 77 73 72 70 68 67 65 56 55 53 52 52 53 57 59 58 58 58 56 56 57 55 52 49 48 48 48 49 48 46 45 45 45 44 41 40 41 39 37
74 74 74 74 77 81 83 84 81 77 75 75 74 72 72 74 67 62 62 61 59 58 58 57 59 58 59 59 58 57 56 55 53 51 52 52 52 51 50 48 48 48 48 45 42 42 42 40 39
74 75 74 70 71 78 83 87 79 79 77 75 76 75 72 72 74 68 65 66 64 62 60 60 60 61 59 59 59 60 57 56 57 56 56 55 53 52 52 53 52 51 49 47 45 44 45 42 42
71 74 73 72 70 74 78 86 85 82 77 71 74 74 75 72 71 71 68 68 69 67 64 61 60 59 59 58 60 60 59 60 60 59 54 52 54 55 55 56 54 53 51 50 48 47 47 46 45
68 64 66 68 69 76 74 85 83 82 80 73 69 71 73 75 74 69 73 69 69 70 69 66 64 62 61 61 60 60 58 58 57 55 56 57 59 58 59 59 58 57 54 51 50 50 49 47 45
57 60 65 67 69 63 73 78 81 81 82 74 70 67 70 72 73 72 70 70 72 71 75 71 68 64 62 62 61 60 60 59 57 58 59 58 58 59 58 58 57 56 54 53 53 53 50 47 47
30 47 61 68 70 74 71 53 74 72 71 72 70 67 65 67 70 71 73 72 69 70 74 76 73 69 65 64 63 61 60 60 60 59 58 59 59 59 59 59 57 57 57 56 56 52 50 49 49
25 32 47 63 75 79 69 67 68 67 61 59 61 63 64 63 67 68 68 70 72 70 72 72 71 71 69 66 64 62 61 61 60 58 60 61 61 60 60 59 60 59 59 58 54 51 51 51 51
23 30 36 54 66 68 66 73 74 61 57 58 56 56 57 61 65 67 70 69 72 74 74 72 72 67 72 70 68 65 65 64 60 60 62 62 62 61 61 61 60 60 59 56 54 53 54 54 53
25 31 29 39 49 34 37 42 59 60 56 54 55 51 53 57 59 62 67 71 68 69 72 73 70 68 69 62 71 68 69 66 64 63 64 64 63 63 63 62 62 61 60 58 56 56 56 56 56
10 20 21 34 33 41 19 13 14 25 32 31 37 41 40 43 49 56 61 65 68 69 69 71 72 70 68 72 64 67 69 70 69 68 67 66 66 66 65 64 63 62 61 60 59 58 58 58 58
14 6 14 38 31 37 43 5 12 23 30 27 30 34 36 41 46 49 54 58 63 65 68 69 71 71 71 67 69 70 63 64 69 73 73 70 69 69 67 66 66 65 64 63 63 61 61 61 61
9 6 11 30 41 24 32 34 22 14 22 26 30 33 29 32 40 43 46 51 54 59 64 68 69 68 70 69 65 67 72 68 64 73 76 73 72 71 69 69 68 69 68 67 66 66 66 65 64